Skip Page Navigation
NASA JPL Caltech
NASA Logo - Jet Propulsion Laboratory + View the NASA Portal
+ Near-Earth Object (NEO) Program
Search JPL
JPL Home Earth Solar System Stars & Galaxies Technology
JPL Solar System Dynamics
BODIES ORBITS EPHEMERIDES TOOLS PHYSICAL DATA DISCOVERY FAQ SITE MAP
JPL Small-Body Database Browser
Search: [ help ]  
6566 Shafter (1992 UB2)
Classification: Main-belt Asteroid          SPK-ID: 2006566
Ephemeris | Orbit Diagram | Orbital Elements | Physical Parameters | Discovery Circumstances ]

[ show orbit diagram ]
Orbital Elements at Epoch 2457000.5 (2014-Dec-09.0) TDB
Reference: JPL 13 (heliocentric ecliptic J2000)
 Element Value Uncertainty (1-sigma)   Units 
e .1696608770043946 4.7908e-08  
a 2.277021699161348 1.1256e-08 AU
q 1.890700200723597 1.0881e-07 AU
i 3.944303433902231 5.1738e-06 deg
node 156.5831955963715 6.8644e-05 deg
peri 205.0834041466995 7.0224e-05 deg
M 177.3267448401507 1.8258e-05 deg
tp 2456382.311499744806
(2013-Mar-30.81149974)
6.115e-05 JED
period 1255.015763654169
3.44
9.3056e-06
2.548e-08
d
yr
n .2868489866229292 2.1269e-09 deg/d
Q 2.663343197599099 1.3165e-08 AU
  Orbit Determination Parameters
   # obs. used (total)      1236  
   data-arc span      14022 days (38.39 yr)  
   first obs. used      1977-03-15  
   last obs. used      2015-08-05  
   planetary ephem.      DE431  
   SB-pert. ephem.      SB431-BIG16  
   condition code      0  
   fit RMS      .5184  
   data source      ORB  
   producer      Otto Matic  
   solution date      2015-Sep-02 14:19:33  

Additional Information
 Earth MOID = .888586 AU 
 T_jup = 3.586 
[ show covariance matrix ]

Ephemeris | Orbit Diagram | Orbital Elements | Physical Parameters | Discovery Circumstances ]

Physical Parameter Table
Parameter Symbol Value Units Sigma Reference Notes
absolute magnitude H 14.0 mag n/a MPO337310  

6566 Shafter           Discovered 1992 Oct. 25 by T. Urata at Oohira.
Allen Shafter (b. 1955) is a professor and chairman of studies in astronomy at San Diego State University. His research is focused on the study of extragalactic novae.
NOTE: some special characters may not display properly (any characters within {} are an attempt to place the proper accent above a character)
Reference: 20090409/MPCPages.arcLast Updated: 2009-04-10

Alternate Designations
 1992 UB2 = 1977 EJ4 = 1985 QR5 = 1989 YA6 
Ephemeris | Orbit Diagram | Orbital Elements | Physical Parameters | Discovery Circumstances ]
ABOUT SSD CREDITS/AWARDS PRIVACY/COPYRIGHT GLOSSARY LINKS
FirstGov 2015-Sep-04 23:11 UT
(server date/time)  
NASA Home Page
Site Manager:   Ryan S. Park
Webmaster  Alan B. Chamberlin